Volver al catálogo

STARLINK-32629

ActivoComunicacionesVLEO
NORAD 62150·PAYLOAD·🇺🇸 United States

Lanzado Nov 30, 2024 desde Cape Canaveral Space Force Station

Loading…

Próximos Pases (próximas 24 horas)

TLE

ActualizadoSource: CelesTrak SupGP

Época: Sep 15, 2026, 02:26 UTC

1 62150C 24224M   26258.10187500 -.00026381  00000+0 -95570-3 0  2581
2 62150  42.9994 168.0107 0001278 268.1065  58.4552 15.27585677    15

Sigue STARLINK-32629 en tiempo real con AllMySat

Download on the App Store